Notices

What's New in latest Release from April 7th, 2021:

- Updated Glossary, including Speed of Maximum Gust, and Total Hourly Precipitation

- Updated national and regional climate services offices contacts and prices information

- Addition of station inventory lists for 1981-2010, 1971-2000, and 1961-1990 Normals.

If you haven't already, please take our survey and provide feedback about our website: https://eccc.sondage-survey.ca/f/LanguageSelection.aspx?s=442ca660-fcf1-47c0-95a9-59707d6fd709

Hourly Data Report for December 15, 2016

CARBERRY CS
MANITOBA

49°54'20.900" N
99°21'26.800" W
383.50 m
5010547
71170
WZE

Download Data

Hourly Data (December 2016)
Hourly Data Report for December 15, 2016
TIME
LST
Temp Definition
°C
Dew Point Definition
°C
Rel Hum Definition
%
Precip. Amount Definition
mm

Wind Dir Definition
10's deg

Wind Spd Definition
km/h
Visibility Definition
km
Stn Press Definition
kPa
Hmdx Definition


Wind Chill Definition


Weather Definition


00:00 -25.1 -28.8 71 0.0 26 25   97.83   -38 LegendNANA
01:00 -25.6 -29.2 72 0.0 25 11   97.88   -34 LegendNANA
02:00 -25.9 -29.4 72 0.0 25 11   97.85   -35 LegendNANA
03:00 -26.0 -29.4 73 0.0 24 9   97.80   -34 LegendNANA
04:00 -26.6 -30.1 72 0.0 25 12   97.78   -36 LegendNANA
05:00 -26.1 -29.3 74 0.0 25 16   97.76   -37 LegendNANA
06:00 -26.4 -29.6 74 0.0 24 10   97.76   -35 LegendNANA
07:00 -26.5 -29.5 76 0.0 23 6   97.69   -32 LegendNANA
08:00 -27.6 -30.4 77 0.0 21 10   97.63   -36 LegendNANA
09:00 -27.7 -31.0 73 0.0 22 10   97.62   -36 LegendNANA
10:00 -26.4 -30.1 71 0.0 22 7   97.59   -33 LegendNANA
11:00 -23.0 -26.9 71 0.0 23 10   97.55   -31 LegendNANA
12:00 -20.8 -25.4 67 0.0 23 12   97.48   -29 LegendNANA
13:00 -20.2 -24.9 66 0.0 20 13   97.33   -29 LegendNANA
14:00 -18.6 -23.9 63 0.0 23 13   97.26   -27 LegendNANA
15:00 -18.6 -23.5 65 0.0 21 14   97.20   -27 LegendNANA
16:00 -19.1 -23.7 67 0.0 23 15   97.16   -28 LegendNANA
17:00 -19.8 -23.9 70 0.0 24 14   97.11   -29 LegendNANA
18:00 -20.4 -24.2 72 0.0 27 11   97.17   -28 LegendNANA
19:00 -20.6 -24.1 73 0.0 25 11   97.12   -28 LegendNANA
20:00 -21.0 -24.5 74 0.0 26 15   97.12   -30 LegendNANA
21:00 -21.2 -24.8 73 0.0 24 10   97.15   -29 LegendNANA
22:00 -22.1 -25.3 75 0.0 25 11   97.15   -30 LegendNANA
23:00 -22.6 -25.7 75 0.0 27 15   97.18   -32 LegendNANA

Notes on Data Quality.

Legend

  • E = Estimated
  • M = Missing
  • NA = Not Available*
  • [empty] = Indicates an unobserved value
Date modified: